Time+07,TemperatureF,Dew PointF,Humidity,Sea Level PressureIn,VisibilityMPH,Wind Direction,Wind SpeedMPH,Gust SpeedMPH,PrecipitationIn,Events,Conditions,WindDirDegrees,DateUTC
12:00 AM,86.0,73.4,66,29.83,5.0,West,16.1,-,N/A,,Mostly Cloudy,280,2013-04-05 17:00:00
12:30 AM,84.2,75.2,74,29.80,5.0,West,16.1,-,N/A,,Mostly Cloudy,280,2013-04-05 17:30:00
1:00 AM,86,74,61,29.77,5,WNW,8.1,,,,Mist,300,2013-04-05 18:00:00
1:00 AM,84.2,73.4,70,29.80,5.0,West,15.0,-,N/A,,Mostly Cloudy,280,2013-04-05 18:00:00
1:30 AM,84.2,73.4,70,29.77,5.0,West,13.8,-,N/A,,Mostly Cloudy,280,2013-04-05 18:30:00
2:00 AM,84.2,71.6,66,29.77,5.0,West,16.1,-,N/A,,Mostly Cloudy,280,2013-04-05 19:00:00
2:30 AM,84.2,73.4,70,29.74,5.0,West,16.1,-,N/A,,Mostly Cloudy,280,2013-04-05 19:30:00
3:00 AM,84.2,71.6,66,29.74,5.0,WNW,13.8,-,N/A,,Mostly Cloudy,290,2013-04-05 20:00:00
3:30 AM,84.2,71.6,66,29.74,5.0,WNW,13.8,-,N/A,,Mostly Cloudy,290,2013-04-05 20:30:00
4:00 AM,84.2,73.4,70,29.74,-9999.0,North,-9999.0,-,N/A,,Mostly Cloudy,0,2013-04-05 21:00:00
4:30 AM,84.2,73.4,70,29.74,5.0,WNW,11.5,-,N/A,,Mostly Cloudy,300,2013-04-05 21:30:00
5:00 AM,84.2,73.4,70,29.74,5.0,WNW,13.8,-,N/A,,Mostly Cloudy,290,2013-04-05 22:00:00
5:30 AM,84.2,73.4,70,29.74,5.0,West,13.8,-,N/A,,Mostly Cloudy,280,2013-04-05 22:30:00
6:00 AM,84.2,73.4,70,29.74,5.0,West,11.5,-,N/A,,Mostly Cloudy,280,2013-04-05 23:00:00
6:30 AM,84.2,73.4,70,29.77,5.0,WNW,10.4,-,N/A,,Mostly Cloudy,290,2013-04-05 23:30:00
7:00 AM,86,76,65,29.74,5,NW,5.8,,,,Mist,320,2013-04-06 00:00:00
7:30 AM,86.0,73.4,66,29.77,4.3,WNW,13.8,-,N/A,,Mostly Cloudy,290,2013-04-06 00:30:00
8:00 AM,86.0,73.4,66,29.80,4.3,WNW,13.8,-,N/A,,Mostly Cloudy,290,2013-04-06 01:00:00
8:30 AM,86.0,73.4,66,29.83,3.1,East,13.8,-,N/A,,Mostly Cloudy,90,2013-04-06 01:30:00
9:00 AM,87.8,73.4,62,29.83,3.1,WNW,16.1,-,N/A,,Mostly Cloudy,290,2013-04-06 02:00:00
9:30 AM,87.8,73.4,62,29.83,3.1,West,16.1,-,N/A,,Mostly Cloudy,280,2013-04-06 02:30:00
10:00 AM,89.6,73.4,59,29.83,3.1,West,16.1,-,N/A,,Mostly Cloudy,280,2013-04-06 03:00:00
10:30 AM,87.8,75.2,66,29.83,3.1,West,16.1,-,N/A,,Mostly Cloudy,280,2013-04-06 03:30:00
11:00 AM,89.6,75.2,62,29.83,3.1,WNW,13.8,-,N/A,,Mostly Cloudy,290,2013-04-06 04:00:00
11:30 AM,89.6,75.2,62,29.83,3.1,West,19.6,-,N/A,,Mostly Cloudy,280,2013-04-06 04:30:00
12:00 PM,91.4,73.4,55,29.83,3.1,West,18.4,-,N/A,,Mostly Cloudy,280,2013-04-06 05:00:00
12:30 PM,91.4,75.2,59,29.80,3.1,West,17.3,-,N/A,,Mostly Cloudy,280,2013-04-06 05:30:00
1:00 PM,91.4,73.4,55,29.80,3.1,WNW,16.1,-,N/A,,Mostly Cloudy,290,2013-04-06 06:00:00
1:30 PM,91.4,73.4,55,29.77,3.1,WNW,17.3,-,N/A,,Mostly Cloudy,290,2013-04-06 06:30:00
2:00 PM,89.6,73.4,59,29.74,3.1,WNW,15.0,-,N/A,,Mostly Cloudy,290,2013-04-06 07:00:00
2:30 PM,89.6,73.4,59,29.74,3.1,West,17.3,-,N/A,,Mostly Cloudy,280,2013-04-06 07:30:00
3:00 PM,89.6,71.6,55,29.74,3.1,WNW,15.0,-,N/A,,Mostly Cloudy,300,2013-04-06 08:00:00
3:30 PM,89.6,73.4,59,29.71,3.1,West,16.1,-,N/A,,Mostly Cloudy,280,2013-04-06 08:30:00
4:00 PM,89.6,73.4,59,29.71,3.1,WNW,17.3,-,N/A,,Mostly Cloudy,290,2013-04-06 09:00:00
4:30 PM,89.6,73.4,59,29.71,3.1,WNW,15.0,-,N/A,,Mostly Cloudy,290,2013-04-06 09:30:00
5:00 PM,87.8,73.4,62,29.71,3.1,West,13.8,-,N/A,,Mostly Cloudy,280,2013-04-06 10:00:00
5:30 PM,87.8,73.4,62,29.71,3.1,WNW,15.0,-,N/A,,Mostly Cloudy,290,2013-04-06 10:30:00
6:00 PM,86.0,73.4,66,29.71,3.1,WNW,13.8,-,N/A,,Mostly Cloudy,300,2013-04-06 11:00:00
6:30 PM,86.0,73.4,66,29.71,2.5,WNW,13.8,-,N/A,,Mostly Cloudy,290,2013-04-06 11:30:00
7:00 PM,87,76,61,29.70,6,WNW,4.6,,,,Scattered Clouds,300,2013-04-06 12:00:00
7:00 PM,86.0,73.4,66,29.74,2.5,WNW,11.5,-,N/A,,Mostly Cloudy,290,2013-04-06 12:00:00
7:30 PM,86.0,73.4,66,29.74,2.5,WNW,12.7,-,N/A,,Mostly Cloudy,290,2013-04-06 12:30:00
8:00 PM,86.0,73.4,66,29.77,2.5,WNW,12.7,-,N/A,,Mostly Cloudy,290,2013-04-06 13:00:00
8:30 PM,86.0,73.4,66,29.77,3.1,WNW,11.5,-,N/A,,Mostly Cloudy,290,2013-04-06 13:30:00
9:00 PM,86.0,71.6,62,29.80,3.1,WNW,12.7,-,N/A,,Mostly Cloudy,290,2013-04-06 14:00:00
9:30 PM,86.0,73.4,66,29.80,3.1,WNW,13.8,-,N/A,,Mostly Cloudy,290,2013-04-06 14:30:00
10:00 PM,84.2,73.4,70,29.80,4.3,WNW,12.7,-,N/A,,Mostly Cloudy,290,2013-04-06 15:00:00
10:30 PM,84.2,73.4,70,29.80,4.3,WNW,13.8,-,N/A,,Mostly Cloudy,290,2013-04-06 15:30:00
11:00 PM,84.2,71.6,66,29.83,4.3,WNW,11.5,-,N/A,,Mostly Cloudy,290,2013-04-06 16:00:00
11:30 PM,84.2,73.4,70,29.80,4.3,WNW,13.8,-,N/A,,Mostly Cloudy,290,2013-04-06 16:30:00